Location: Downe
(51.3167°N, 0.0500°E)
Time: 13:07:04
(UTC+00:00)

CZ-4C R/B - Pass Details

Date: 17 November 2019
Orbit: 649 x 1352 km, 63.4° (Epoch: 13 December)

Event Time Altitude Azimuth Distance (km) Brightness Sun altitude
Exits shadow 05:17:50 22° 318° (NW) 1,936 3.6 -18.8°
Maximum altitude 05:20:25 29° 356° (N) 1,740 3.7 -18.4°
Drops below altitude 10° 05:26:23 10° 54° (NE) 2,981 5.7 -17.5°
Sets 05:29:45 0° 65° (ENE) 4,059 6.7 -16.9°
